Location: Bemmer
(51.5498°N, 5.6249°E)
Time: 12:02:02
(UTC+00:00)

Cosmos 2219 Rocket - Pass Details

Date: 03 March 2021
Orbit: 826 x 848 km, 71.0° (Epoch: 17 April)

Event Time Altitude Azimuth Distance (km) Brightness Sun altitude
Rises 19:24:31 0° 188° (S) 3,354 5.3 -19.8°
Reaches altitude 10° 19:27:00 10° 183° (S) 2,427 4.5 -20.1°
Maximum altitude 19:32:18 47° 111° (ESE) 1,089 2.3 -20.9°
Drops below altitude 10° 19:37:39 10° 39° (NE) 2,454 4.4 -21.7°
Sets 19:40:11 0° 34° (NNE) 3,396 5.2 -22.1°
